Lid_Strength_Index
5 7 9 8 8 7 7 7 8 7 6 6 8 10 9 6 5 5 5 5 4 4 3 2 2 1 1 1 1 1 1 0 0 1 1 1 1 0 0 -0 -0 -1 -2 -2
7 9 6 6 7 8 7 8 8 6 6 7 7 9 8 6 5 5 5 5 4 4 3 3 2 2 2 1 1 1 1 1 0 1 0 1 1 0 0 -0 -1 -1 -1 -1
8 7 6 6 7 8 8 8 8 8 6 6 7 8 7 6 5 5 4 4 4 4 4 3 3 2 2 2 2 1 1 1 0 0 0 0 0 -0 1 1 0 -0 -1 -1
7 6 6 7 7 7 9 6 7 8 8 11 7 12 9 7 7 6 5 4 4 4 3 3 3 3 2 2 1 1 1 1 1 0 1 1 2 2 1 0 0 0 -1 -1
7 7 7 8 7 6 7 6 7 7 8 9 10 11 9 7 8 7 5 5 4 3 3 3 3 2 2 1 1 1 1 1 1 1 1 1 1 1 1 0 0 0 -0 -1
6 5 6 6 6 5 5 6 6 7 8 13 10 11 11 9 9 7 5 5 4 4 3 3 2 2 2 1 1 1 1 1 1 1 1 1 1 1 1 1 1 1 0 -0
7 7 5 5 7 6 6 8 11 12 12 12 9 11 10 7 6 6 6 5 4 3 3 3 3 3 2 2 2 2 2 2 1 1 1 1 1 1 1 1 1 1 1 1
9 10 7 5 7 7 7 8 10 15 14 12 8 11 10 6 5 5 5 5 4 4 3 3 3 3 3 2 2 2 2 2 1 1 1 1 1 1 1 1 1 1 1 1
9 9 6 6 5 6 7 9 7 9 9 11 10 8 6 6 6 6 5 4 4 4 4 3 3 3 2 2 2 2 2 2 2 1 1 1 1 1 1 0 0 1 0 -0
7 9 6 6 5 6 7 6 9 9 13 15 11 10 10 8 8 6 5 5 4 4 3 3 3 3 2 2 2 2 2 2 2 1 1 1 1 1 1 1 1 1 0 -0
6 8 8 6 7 8 8 8 8 8 9 12 13 11 6 7 7 6 5 4 4 3 3 3 3 2 2 2 2 2 2 2 2 1 1 1 1 1 1 1 1 1 0 0
6 7 9 8 6 5 6 8 8 10 11 9 10 10 5 5 5 5 5 4 3 3 3 3 3 3 2 2 2 2 2 2 2 1 1 1 1 1 1 1 1 0 1 0
6 8 10 10 8 6 7 7 7 7 8 10 12 10 5 5 5 5 4 4 4 4 3 3 3 3 3 2 2 2 2 2 1 1 2 1 1 1 1 1 1 1 1 1
5 7 9 11 9 7 8 8 7 8 10 10 9 9 7 6 6 5 4 4 3 2 2 2 2 3 3 2 2 2 2 1 1 2 2 2 2 1 1 1 1 1 1 1
6 9 8 8 7 7 8 8 8 8 8 10 8 8 7 6 6 5 4 3 3 3 4 3 3 2 3 3 2 2 2 2 1 2 2 2 1 1 1 1 1 1 1 1
5 9 8 9 7 8 8 7 7 7 8 8 7 8 5 4 4 5 5 4 4 4 3 3 3 3 2 3 3 2 2 2 1 2 2 2 2 1 1 1 1 1 1 1
7 8 10 11 8 8 10 8 8 7 7 7 9 7 5 5 5 4 5 4 4 4 3 3 3 3 3 2 2 3 2 2 2 2 2 2 2 2 2 1 1 1 1 1
8 8 9 11 10 15 8 6 6 7 6 6 6 5 5 5 4 4 3 4 4 3 3 2 2 3 2 2 2 2 2 2 2 2 2 2 2 2 2 2 2 2 1 1
6 8 10 12 12 9 8 7 7 7 8 5 6 5 5 4 4 4 3 3 3 3 3 2 2 2 2 2 2 2 2 2 2 3 2 2 2 2 2 2 2 2 2 2
6 7 9 10 13 14 9 6 5 6 10 5 6 6 5 5 8 6 3 3 2 2 2 2 2 2 2 2 2 2 3 3 3 2 2 2 2 2 2 2 2 1 1 2
9 9 11 11 12 10 7 6 5 12 10 6 6 5 5 6 6 4 3 3 2 2 2 2 0 1 2 2 2 3 3 3 2 2 2 2 2 2 2 2 1 1 2 2
10 11 11 11 13 14 6 6 9 7 5 5 5 5 5 5 4 4 3 3 3 3 2 2 1 1 2 2 3 3 3 2 2 2 2 2 2 2 2 2 2 2 2 2
10 8 10 9 10 8 6 7 5 5 5 5 5 4 4 4 4 4 4 3 3 3 3 2 2 3 2 2 2 3 3 2 2 2 2 2 2 1 1 2 2 2 2 2
7 6 8 9 7 7 6 5 4 4 4 4 4 4 4 4 4 4 4 3 3 3 3 3 3 4 3 2 2 2 2 2 2 2 2 2 2 2 2 2 2 2 2 3
10 9 9 8 7 7 6 5 4 4 4 5 4 5 5 5 5 4 4 4 4 3 3 3 4 4 3 3 2 2 2 2 2 2 2 2 2 2 4 7 6 2 5 5
9 10 12 12 9 8 7 5 4 5 5 4 4 5 4 4 5 5 4 4 4 4 3 4 4 4 3 3 2 2 1 2 2 3 3 3 2 2 4 5 7 14 13 14